Location: Huberhof
(49.2050°N, 7.4980°E)
Time: 04:26:48
(UTC+00:00)

COSMO-SKYMED 1 - Pass Details

Date: 29 October 2020
Orbit: 621 x 623 km, 97.9° (Epoch: 25 November)

Event Time Altitude Azimuth Distance (km) Brightness Sun altitude
Rises 17:01:04 0° 21° (NNE) 2,915 5.7 -8.3°
Reaches altitude 10° 17:03:28 10° 31° (NNE) 2,003 4.8 -8.7°
Maximum altitude 17:07:24 33° 96° (E) 1,060 3.3 -9.4°
Drops below altitude 10° 17:11:19 10° 161° (SSE) 1,987 5.1 -10.0°
Sets 17:13:40 0° 171° (S) 2,888 6.0 -10.4°
